Regional Weather Roundup
Issued by NWS

Home | Current Version | Previous Version | Text Only | Print | Product List | Glossary Off
Versions: 1 2 3 4 5 6 7 8 9 10 11 12 13 14 15 16 17 18 19 20 21 22 23 24 25 26 27 28 29 30 31 32 33 34 35 36 37 38 39 40 41 42 43 44 45 46 47 48 49 50

000
ASUS45 KPSR 240100
RWRAZ

PRELIMINARY ARIZONA REGIONAL HOURLY WEATHER ROUNDUP
NATIONAL WEATHER SERVICE PHOENIX AZ
600 PM MST THU OCT 23 2014

NOTE: FAIR INDICATES FEW OR NO CLOUDS BELOW 12,000 FEET WITH NO
SIGNIFICANT WEATHER AND/OR OBSTRUCTIONS TO VISIBILITY.

AZZ001>003-036-240200-
NORTHWEST ARIZONA

CITY           SKY/WX    TMP DP  RH WIND       PRES   REMARKS
KINGMAN        CLEAR     71  38  29 SW7       30.09R
$$

AZZ004>008-015-016-018-240200-
NORTH CENTRAL ARIZONA

CITY           SKY/WX    TMP DP  RH WIND       PRES   REMARKS
GRAND CANYON   MOCLDY    55  33  43 CALM      30.30R
PRESCOTT       PTCLDY    70  38  31 S5        30.19R
FLAGSTAFF      MOCLDY    56  34  43 CALM      30.33R
PAYSON         MOCLDY    68  39  34 SE3       30.23R
PAGE           MOCLDY    68  35  29 S3        30.15R
$$

AZZ009>014-017-240200-
NORTHEAST ARIZONA

CITY           SKY/WX    TMP DP  RH WIND       PRES   REMARKS
WINSLOW        NOT AVBL
SAINT JOHNS    PTCLDY    65  37  35 NW7       30.23R
WINDOW ROCK    MOCLDY    63  30  28 CALM      30.30R
$$

AZZ023-240200-
GREATER PHOENIX AREA

CITY           SKY/WX    TMP DP  RH WIND       PRES   REMARKS
PHOENIX        PTCLDY    88  47  24 SW3       29.93R
GLENDALE       PTCLDY    90  46  22 SE3       29.95S
DEER VALLEY    CLEAR     86  46  24 CALM      29.95S
SCOTTSDALE     CLEAR     87  46  24 CALM      29.97S
MESA-FALCON    PTCLDY    86  46  25 W5        29.95R
MESA-GATEWAY   PTCLDY    84  48  28 NW3       29.97S
CHANDLER       PTCLDY    88  48  25 VRB6      29.95R
$$

AZZ027-028-240200-
SOUTHWEST MARICOPA COUNTY AND PINAL COUNTY

CITY           SKY/WX    TMP DP  RH WIND       PRES   REMARKS
CASA GRANDE    CLEAR     84  48  28 CALM      29.97R
GILA BEND      FAIR      87  47  24 W2        29.93R
$$

AZZ503-504-507>509-240200-
SOUTHEAST ARIZONA

CITY           SKY/WX    TMP DP  RH WIND       PRES   REMARKS
TUCSON         CLEAR     84  42  22 N5        30.03R
RYAN FIELD       N/A     86  46  25 W3        30.02R
NOGALES        CLEAR     75  43  31 NE3       30.10R
SIERRA VISTA   CLEAR     73  43  33 E3        30.17R
SAFFORD        PTCLDY    78  48  34 CALM      30.06R
$$

AZZ020-021-025-026-031-240200-
SOUTHWEST ARIZONA

CITY           SKY/WX    TMP DP  RH WIND       PRES   REMARKS
YUMA           NOT AVBL
$$

CAZ031-033-041-043-047-048-061-240200-
SOUTHERN CALIFORNIA

CITY           SKY/WX    TMP DP  RH WIND       PRES   REMARKS
DOWNTOWN L.A.  CLEAR     77  58  51 W3        29.90S
L.A. AIRPORT   CLEAR     72  63  73 W8        29.91S
SAN DIEGO      PTCLDY    75  60  59 W3        29.93S
BURBANK        CLEAR     83  37  19 S3        29.92S
ONTARIO        PTCLDY    85  41  21 W7        29.92S
RIVERSIDE      CLEAR     84  42  22 W5        29.92S
PALM SPRINGS   CLEAR     89  46  22 E5        29.91S
EL CENTRO NAS  PTCLDY    90  45  21 NE3       29.86R
IMPERIAL       CLEAR     91  47  21 E3        29.85S
$$

NVZ020-UTZ003-240200-
SOUTHERN NEVADA-UTAH

CITY           SKY/WX    TMP DP  RH WIND       PRES   REMARKS
LAS VEGAS      NOT AVBL
SALT LAKE CITY CLOUDY    58  40  51 CALM      30.06S
$$

NMZ009-TXZ055-240200-
NEW MEXICO-WEST TEXAS

CITY           SKY/WX    TMP DP  RH WIND       PRES   REMARKS
ALBUQUERQUE    PTCLDY    72  34  24 CALM      30.21R
EL PASO        CLEAR     76  45  33 W5        30.13R
$$


........................KEY........................
SKY/WX - SKY CONDITION/WEATHER
TMP    - TEMPERATURE IN FAHRENHEIT
DP     - DEW POINT IN FAHRENHEIT
RH     - RELATIVE HUMIDITY IN PERCENT
WIND   - DIRECTION AND SPEED IN MILES PER HOUR (MPH)
VRB    - VARIABLE WIND DIRECTION
PRES   - MEAN SEA LEVEL PRESSURE IN INCHES OF MERCURY
         F - FALLING PRESSURE   R - RISING PRESSURE
         S - STEADY PRESSURE
VSB    - VISIBILITY IN MILES
HX     - HEAT INDEX IN FAHRENHEIT
WCI    - WIND CHILL INDEX IN FAHRENHEIT
TC     - TEMPERATURE IN CELSIUS WHICH IS ALSO KNOWN AS
         TEMPERATURE IN CENTIGRADE
AFB    - AIR FORCE BASE
         LUKE AFB IS LUKE AIR FORCE BASE
         DAVIS-MONTHAN IS DAVIS-MONTHAN AIR FORCE BASE
NAS    - NAVAL AIR STATION
         EL CENTRO NAS IS EL CENTRO NAVAL AIR STATION
N/A    - NOT AVAILABLE



USA.gov is the U.S. government's official web portal to all federal, state and local government web resources and services.